Time,TemperatureF,DewpointF,PressureIn,WindDirection,WindDirectionDegrees,WindSpeedMPH,WindSpeedGustMPH,Humidity,HourlyPrecipIn,Conditions,Clouds,dailyrainin,SoftwareType,DateUTC
2013-06-20 00:02:00,71.0,-99.9,-100.00,NE,56,2.0,4.0,-999,0.00,,,0.00,,2013-06-20 05:02:00,
2013-06-20 00:12:00,71.0,-99.9,-100.00,NE,56,2.0,4.0,-999,0.00,,,0.00,,2013-06-20 05:12:00,
2013-06-20 00:22:00,71.0,-99.9,-100.00,NE,56,2.0,4.0,-999,0.00,,,0.00,,2013-06-20 05:22:00,
2013-06-20 00:33:00,72.0,-99.9,-100.00,East,93,5.0,7.0,-999,0.00,,,0.00,,2013-06-20 05:33:00,
2013-06-20 00:44:00,72.0,-99.9,-100.00,East,93,5.0,7.0,-999,0.00,,,0.00,,2013-06-20 05:44:00,
2013-06-20 00:53:00,72.0,-99.9,-100.00,East,93,5.0,7.0,-999,0.00,,,0.00,,2013-06-20 05:53:00,
2013-06-20 01:02:00,72.0,-99.9,-100.00,East,100,5.0,7.0,-999,0.00,,,0.00,,2013-06-20 06:02:00,
2013-06-20 01:12:00,72.0,-99.9,-100.00,East,100,5.0,7.0,-999,0.00,,,0.00,,2013-06-20 06:12:00,
2013-06-20 01:22:00,72.0,-99.9,-100.00,East,100,5.0,7.0,-999,0.00,,,0.00,,2013-06-20 06:22:00,
2013-06-20 01:34:00,71.0,-99.9,-100.00,ESE,121,5.0,6.0,-999,0.00,,,0.00,,2013-06-20 06:34:00,
2013-06-20 01:43:00,71.0,-99.9,-100.00,ESE,121,5.0,6.0,-999,0.00,,,0.00,,2013-06-20 06:43:00,
2013-06-20 01:53:00,71.0,-99.9,-100.00,ESE,121,5.0,6.0,-999,0.00,,,0.00,,2013-06-20 06:53:00,
2013-06-20 02:02:00,71.0,-99.9,-100.00,SE,142,6.0,9.0,-999,0.00,,,0.00,,2013-06-20 07:02:00,
2013-06-20 02:12:00,71.0,-99.9,-100.00,SE,142,6.0,9.0,-999,0.00,,,0.00,,2013-06-20 07:12:00,
2013-06-20 02:23:00,71.0,-99.9,-100.00,SE,142,6.0,9.0,-999,0.00,,,0.00,,2013-06-20 07:23:00,
2013-06-20 02:34:00,70.0,-99.9,-100.00,ESE,123,4.0,6.0,-999,0.00,,,0.00,,2013-06-20 07:34:00,
2013-06-20 02:44:00,70.0,-99.9,-100.00,ESE,123,4.0,6.0,-999,0.00,,,0.00,,2013-06-20 07:44:00,
2013-06-20 02:53:00,70.0,-99.9,-100.00,ESE,123,4.0,6.0,-999,0.00,,,0.00,,2013-06-20 07:53:00,
2013-06-20 03:02:00,70.0,-99.9,-100.00,ESE,118,4.0,5.0,-999,0.00,,,0.00,,2013-06-20 08:02:00,
2013-06-20 03:12:00,70.0,-99.9,-100.00,ESE,118,4.0,5.0,-999,0.00,,,0.00,,2013-06-20 08:12:00,
2013-06-20 03:22:00,70.0,-99.9,-100.00,ESE,118,4.0,5.0,-999,0.00,,,0.00,,2013-06-20 08:22:00,
2013-06-20 03:30:00,69.0,-99.9,-100.00,ESE,119,4.0,6.0,-999,0.00,,,0.00,,2013-06-20 08:30:00,
2013-06-20 03:34:00,70.0,-99.9,-100.00,ESE,121,4.0,6.0,-999,0.00,,,0.00,,2013-06-20 08:34:00,
2013-06-20 03:43:00,70.0,-99.9,-100.00,ESE,121,4.0,6.0,-999,0.00,,,0.00,,2013-06-20 08:43:00,
2013-06-20 03:53:00,70.0,-99.9,-100.00,ESE,121,4.0,6.0,-999,0.00,,,0.00,,2013-06-20 08:53:00,
2013-06-20 04:02:00,69.0,-99.9,-100.00,ESE,119,4.0,6.0,-999,0.00,,,0.00,,2013-06-20 09:02:00,
2013-06-20 04:12:00,69.0,-99.9,-100.00,ESE,119,4.0,6.0,-999,0.00,,,0.00,,2013-06-20 09:12:00,
2013-06-20 04:22:00,69.0,-99.9,-100.00,ESE,119,4.0,6.0,-999,0.00,,,0.00,,2013-06-20 09:22:00,
2013-06-20 05:02:00,69.0,-99.9,-100.00,East,96,1.0,3.0,-999,0.00,,,0.00,,2013-06-20 10:02:00,
2013-06-20 05:12:00,69.0,-99.9,-100.00,East,96,1.0,3.0,-999,0.00,,,0.00,,2013-06-20 10:12:00,
2013-06-20 05:22:00,69.0,-99.9,-100.00,East,96,1.0,3.0,-999,0.00,,,0.00,,2013-06-20 10:22:00,
2013-06-20 05:34:00,68.0,-99.9,-100.00,East,90,2.0,4.0,-999,0.00,,,0.00,,2013-06-20 10:34:00,
2013-06-20 05:44:00,68.0,-99.9,-100.00,East,90,2.0,4.0,-999,0.00,,,0.00,,2013-06-20 10:44:00,
2013-06-20 05:53:00,68.0,-99.9,-100.00,East,90,2.0,4.0,-999,0.00,,,0.00,,2013-06-20 10:53:00,
2013-06-20 06:02:00,68.0,-99.9,-100.00,ENE,59,2.0,3.0,-999,0.00,,,0.00,,2013-06-20 11:02:00,
2013-06-20 06:12:00,68.0,-99.9,-100.00,ENE,59,2.0,3.0,-999,0.00,,,0.00,,2013-06-20 11:12:00,
2013-06-20 06:22:00,68.0,-99.9,-100.00,ENE,59,2.0,3.0,-999,0.00,,,0.00,,2013-06-20 11:22:00,
2013-06-20 06:34:00,68.0,-99.9,-100.00,East,82,1.0,3.0,-999,0.00,,,0.00,,2013-06-20 11:34:00,
2013-06-20 06:43:00,68.0,-99.9,-100.00,East,82,1.0,3.0,-999,0.00,,,0.00,,2013-06-20 11:43:00,
2013-06-20 06:53:00,68.0,-99.9,-100.00,East,82,1.0,3.0,-999,0.00,,,0.00,,2013-06-20 11:53:00,
2013-06-20 07:02:00,69.0,-99.9,-100.00,ENE,78,3.0,5.0,-999,0.00,,,0.00,,2013-06-20 12:02:00,
2013-06-20 07:12:00,69.0,-99.9,-100.00,ENE,78,3.0,5.0,-999,0.00,,,0.00,,2013-06-20 12:12:00,
2013-06-20 07:22:00,69.0,-99.9,-100.00,ENE,78,3.0,5.0,-999,0.00,,,0.00,,2013-06-20 12:22:00,
2013-06-20 07:34:00,70.0,-99.9,-100.00,East,101,2.0,4.0,-999,0.00,,,0.00,,2013-06-20 12:34:00,
2013-06-20 07:43:00,70.0,-99.9,-100.00,East,101,2.0,4.0,-999,0.00,,,0.00,,2013-06-20 12:43:00,
2013-06-20 07:53:00,70.0,-99.9,-100.00,East,101,2.0,4.0,-999,0.00,,,0.00,,2013-06-20 12:53:00,
2013-06-20 08:02:00,74.0,-99.9,-100.00,SE,146,1.0,3.0,-999,0.00,,,0.00,,2013-06-20 13:02:00,
2013-06-20 08:12:00,74.0,-99.9,-100.00,SE,146,1.0,3.0,-999,0.00,,,0.00,,2013-06-20 13:12:00,
2013-06-20 08:22:00,74.0,-99.9,-100.00,SE,146,1.0,3.0,-999,0.00,,,0.00,,2013-06-20 13:22:00,
2013-06-20 08:30:00,76.0,-99.9,-100.00,ESE,122,1.0,3.0,-999,0.00,,,0.00,,2013-06-20 13:30:00,
2013-06-20 08:33:00,72.0,-99.9,-100.00,ENE,76,2.0,3.0,-999,0.00,,,0.00,,2013-06-20 13:33:00,
2013-06-20 08:43:00,72.0,-99.9,-100.00,ENE,76,2.0,3.0,-999,0.00,,,0.00,,2013-06-20 13:43:00,
2013-06-20 08:53:00,72.0,-99.9,-100.00,ENE,76,2.0,3.0,-999,0.00,,,0.00,,2013-06-20 13:53:00,
2013-06-20 09:02:00,76.0,-99.9,-100.00,ESE,122,1.0,3.0,-999,0.00,,,0.00,,2013-06-20 14:02:00,
2013-06-20 09:11:00,76.0,-99.9,-100.00,ESE,122,1.0,3.0,-999,0.00,,,0.00,,2013-06-20 14:11:00,
2013-06-20 09:22:00,76.0,-99.9,-100.00,ESE,122,1.0,3.0,-999,0.00,,,0.00,,2013-06-20 14:22:00,
2013-06-20 10:02:00,78.0,-99.9,-100.00,NE,52,1.0,1.0,-999,0.00,,,0.00,,2013-06-20 15:02:00,
2013-06-20 10:12:00,78.0,-99.9,-100.00,NE,52,1.0,1.0,-999,0.00,,,0.00,,2013-06-20 15:12:00,
2013-06-20 10:22:00,78.0,-99.9,-100.00,NE,52,1.0,1.0,-999,0.00,,,0.00,,2013-06-20 15:22:00,
2013-06-20 10:34:00,83.0,-99.9,-100.00,SE,132,3.0,5.0,-999,0.00,,,0.00,,2013-06-20 15:34:00,
2013-06-20 10:43:00,83.0,-99.9,-100.00,SE,132,3.0,5.0,-999,0.00,,,0.00,,2013-06-20 15:43:00,
2013-06-20 10:53:00,83.0,-99.9,-100.00,SE,132,3.0,5.0,-999,0.00,,,0.00,,2013-06-20 15:53:00,
2013-06-20 11:02:00,81.0,-99.9,-100.00,SSE,152,7.0,10.0,-999,0.00,,,0.00,,2013-06-20 16:02:00,
2013-06-20 11:12:00,81.0,-99.9,-100.00,SSE,152,7.0,10.0,-999,0.00,,,0.00,,2013-06-20 16:12:00,
2013-06-20 11:23:00,81.0,-99.9,-100.00,SSE,152,7.0,10.0,-999,0.00,,,0.00,,2013-06-20 16:23:00,
2013-06-20 11:33:00,83.0,-99.9,-100.00,SSE,154,5.0,7.0,-999,0.00,,,0.00,,2013-06-20 16:33:00,
2013-06-20 11:43:00,83.0,-99.9,-100.00,SSE,154,5.0,7.0,-999,0.00,,,0.00,,2013-06-20 16:43:00,
2013-06-20 11:53:00,83.0,-99.9,-100.00,SSE,154,5.0,7.0,-999,0.00,,,0.00,,2013-06-20 16:53:00,
2013-06-20 12:02:00,84.0,-99.9,-100.00,South,187,3.0,6.0,-999,0.00,,,0.00,,2013-06-20 17:02:00,
2013-06-20 12:12:00,84.0,-99.9,-100.00,South,187,3.0,6.0,-999,0.00,,,0.00,,2013-06-20 17:12:00,
2013-06-20 12:22:00,84.0,-99.9,-100.00,South,187,3.0,6.0,-999,0.00,,,0.00,,2013-06-20 17:22:00,
2013-06-20 12:33:00,84.0,-99.9,-100.00,SSE,154,7.0,11.0,-999,0.00,,,0.00,,2013-06-20 17:33:00,
2013-06-20 12:43:00,84.0,-99.9,-100.00,SSE,154,7.0,11.0,-999,0.00,,,0.00,,2013-06-20 17:43:00,
2013-06-20 12:53:00,84.0,-99.9,-100.00,SSE,154,7.0,11.0,-999,0.00,,,0.00,,2013-06-20 17:53:00,
2013-06-20 13:01:00,84.0,-99.9,-100.00,SSE,159,7.0,11.0,-999,0.00,,,0.00,,2013-06-20 18:01:00,
2013-06-20 13:12:00,84.0,-99.9,-100.00,SSE,159,7.0,11.0,-999,0.00,,,0.00,,2013-06-20 18:12:00,
2013-06-20 13:22:00,84.0,-99.9,-100.00,SSE,159,7.0,11.0,-999,0.00,,,0.00,,2013-06-20 18:22:00,
2013-06-20 13:34:00,85.0,-99.9,-100.00,SE,137,8.0,11.0,-999,0.00,,,0.00,,2013-06-20 18:34:00,
2013-06-20 13:43:00,85.0,-99.9,-100.00,SE,137,8.0,11.0,-999,0.00,,,0.00,,2013-06-20 18:43:00,
2013-06-20 13:53:00,85.0,-99.9,-100.00,SE,137,8.0,11.0,-999,0.00,,,0.00,,2013-06-20 18:53:00,
2013-06-20 14:02:00,86.0,-99.9,-100.00,SSE,156,6.0,11.0,-999,0.00,,,0.00,,2013-06-20 19:02:00,
2013-06-20 14:11:00,86.0,-99.9,-100.00,SSE,156,6.0,11.0,-999,0.00,,,0.00,,2013-06-20 19:11:00,
2013-06-20 14:22:00,86.0,-99.9,-100.00,SSE,156,6.0,11.0,-999,0.00,,,0.00,,2013-06-20 19:22:00,
2013-06-20 14:34:00,86.0,-99.9,-100.00,SE,138,7.0,9.0,-999,0.00,,,0.00,,2013-06-20 19:34:00,
2013-06-20 14:44:00,86.0,-99.9,-100.00,SE,138,7.0,9.0,-999,0.00,,,0.00,,2013-06-20 19:44:00,
2013-06-20 14:53:00,86.0,-99.9,-100.00,SE,138,7.0,9.0,-999,0.00,,,0.00,,2013-06-20 19:53:00,
2013-06-20 15:02:00,88.0,-99.9,-100.00,SSE,167,5.0,7.0,-999,0.00,,,0.00,,2013-06-20 20:02:00,
2013-06-20 15:12:00,88.0,-99.9,-100.00,SSE,167,5.0,7.0,-999,0.00,,,0.00,,2013-06-20 20:12:00,
2013-06-20 15:22:00,88.0,-99.9,-100.00,SSE,167,5.0,7.0,-999,0.00,,,0.00,,2013-06-20 20:22:00,
2013-06-20 15:43:00,88.0,-99.9,-100.00,SSE,164,6.0,10.0,-999,0.00,,,0.00,,2013-06-20 20:43:00,
2013-06-20 15:53:00,88.0,-99.9,-100.00,SSE,164,6.0,10.0,-999,0.00,,,0.00,,2013-06-20 20:53:00,